Location: Asheville, NC
(35.6000°N, 82.5500°W)
Time: 05:27:59
(UTC-05:00)

Vanguard 1 Rocket - Pass Details

Date: 12 February 2018
Orbit: 655 x 4222 km, 34.3° (Epoch: 17 February)

Event Time Altitude Azimuth Distance (km) Brightness Sun altitude
Rises 20:45:00 0° 176° (S) 6,498 11.7 -32.2°
Reaches altitude 10° 20:51:48 10° 157° (SSE) 6,150 11.3 -33.5°
Enters shadow 20:54:29 13° 149° (SSE) 6,117 11.2 -34.1°
